Weather History for Flag Island, MN

Change the Weather History Date:

Sunday, September 1, 2013

  Actual Average Record
Temperature  
Mean Temperature 58 °F -  
Max Temperature 62 °F 66 °F 80 °F (2011)
Min Temperature 53 °F 54 °F 44 °F (2000)
Degree Days  
Heating Degree Days 8    
Growing Degree Days 8 (Base 50)    
Moisture  
Dew Point 51 °F    
Average Humidity 80    
Maximum Humidity 94    
Minimum Humidity 63    
Precipitation  
Precipitation 0.00 in - - ()
Sea Level Pressure  
Sea Level Pressure 29.94 in    
Wind  
Wind Speed 18 mph (North)    
Max Wind Speed 24 mph    
Max Gust Speed 29 mph    
Visibility 10 miles    
Events      
Averages and records for this station are not official NWS values.
T = Trace of Precipitation, MM = Missing Value Source: NWS Daily Summary

Daily Weather History Graph

Daily Weather History Graph

Search for Another Location

Airport:

Trip Planner

Search our weather history database for the weather conditions in past years. The results will help you decide how hot, cold, wet, or windy it might be!

Date:

Astronomy

Sep. 01, 2013 Rise Set
Actual Time 6:36 AM CDT 8:01 PM CDT
Civil Twilight 6:02 AM CDT 8:34 PM CDT
Nautical Twilight 5:22 AM CDT 9:14 PM CDT
Astronomical Twilight 4:38 AM CDT 9:58 PM CDT
Moon 2:45 AM CDT (9/1) 5:50 PM CDT (9/1)
Length of Visible Light 14h 31m
Length of Day
13h 25m
Waning Crescent, 13% of the Moon is Illuminated
Sep 1
Waning Crescent
Sep 5
New
Sep 12
First Quarter
Sep 19
Full
Sep 26
Last Quarter

Hourly Weather History & Observations

Time (CDT) Temp. Dew Point Humidity Pressure Visibility Wind Dir Wind Speed Gust Speed Precip Events Conditions
2:08 AM 62.6 °F - N/A% 29.74 in - North 21.9 mph - N/A   Unknown
2:13 AM 62.6 °F 59.0 °F 88% 29.74 in 10.0 mi North 21.9 mph - N/A   Unknown
2:33 AM 62.6 °F 57.2 °F 82% 29.75 in 10.0 mi NNW 18.4 mph - N/A   Overcast
2:53 AM 60.8 °F 57.2 °F 88% 29.75 in 10.0 mi North 17.3 mph - N/A   Overcast
3:13 AM 60.8 °F 57.2 °F 88% 29.76 in 10.0 mi NNW 18.4 mph 24.2 mph N/A   Overcast
3:33 AM 60.8 °F 57.2 °F 88% 29.77 in 10.0 mi NNW 20.7 mph - N/A   Overcast
3:53 AM 60.8 °F 57.2 °F 88% 29.77 in 10.0 mi NNW 19.6 mph 25.3 mph N/A   Overcast
4:13 AM 60.8 °F 57.2 °F 88% 29.79 in 10.0 mi NNW 18.4 mph - N/A   Overcast
4:33 AM 59.0 °F 55.4 °F 88% 29.79 in 10.0 mi North 18.4 mph 24.2 mph N/A   Overcast
4:53 AM 57.2 °F 55.4 °F 94% 29.80 in 10.0 mi NNW 18.4 mph - N/A   Overcast
5:13 AM 57.2 °F 55.4 °F 94% 29.81 in 10.0 mi NNW 20.7 mph - N/A   Overcast
5:33 AM 57.2 °F 55.4 °F 94% 29.82 in 10.0 mi NNW 20.7 mph 26.5 mph N/A   Overcast
5:53 AM 57.2 °F 53.6 °F 88% 29.83 in 10.0 mi North 19.6 mph - N/A   Overcast
6:13 AM 57.2 °F 53.6 °F 88% 29.84 in 10.0 mi North 21.9 mph 26.5 mph N/A   Mostly Cloudy
6:34 AM 57.2 °F 53.6 °F 88% 29.85 in 10.0 mi North 18.4 mph 26.5 mph N/A   Overcast
6:53 AM 55.4 °F 51.8 °F 88% 29.86 in 10.0 mi North 23.0 mph 27.6 mph N/A   Mostly Cloudy
7:13 AM 55.4 °F 51.8 °F 88% 29.87 in 10.0 mi North 24.2 mph 28.8 mph N/A   Scattered Clouds
7:33 AM 55.4 °F 51.8 °F 88% 29.88 in 10.0 mi North 24.2 mph 28.8 mph N/A   Scattered Clouds
7:53 AM 55.4 °F 51.8 °F 88% 29.89 in 10.0 mi North 19.6 mph 25.3 mph N/A   Scattered Clouds
8:13 AM 55.4 °F 51.8 °F 88% 29.89 in 10.0 mi North 19.6 mph - N/A   Overcast
8:33 AM 55.4 °F 51.8 °F 88% 29.89 in 10.0 mi North 17.3 mph - N/A   Overcast
8:53 AM 53.6 °F 51.8 °F 94% 29.91 in 10.0 mi North 20.7 mph 25.3 mph N/A   Overcast
9:13 AM 55.4 °F 51.8 °F 88% 29.91 in 10.0 mi North 16.1 mph - N/A   Overcast
9:33 AM 53.6 °F 50.0 °F 88% 29.92 in 10.0 mi North 21.9 mph - N/A   Overcast
9:53 AM 55.4 °F 51.8 °F 88% 29.93 in 10.0 mi NNW 21.9 mph - N/A   Overcast
10:13 AM 53.6 °F 51.8 °F 94% 29.94 in 7.0 mi North 19.6 mph 25.3 mph N/A   Overcast
10:34 AM 53.6 °F 51.8 °F 94% 29.95 in 7.0 mi North 18.4 mph - N/A   Overcast
10:53 AM 55.4 °F 50.0 °F 82% 29.95 in 10.0 mi North 15.0 mph - N/A   Overcast
11:13 AM 53.6 °F 50.0 °F 88% 29.96 in 7.0 mi NNW 17.3 mph 21.9 mph N/A   Overcast
11:34 AM 55.4 °F 50.0 °F 82% 29.96 in 10.0 mi North 17.3 mph 23.0 mph N/A   Overcast
11:53 AM 55.4 °F 50.0 °F 82% 29.96 in 10.0 mi North 15.0 mph 24.2 mph N/A   Overcast
12:13 PM 55.4 °F 50.0 °F 82% 29.97 in 10.0 mi North 16.1 mph 23.0 mph N/A   Overcast
12:34 PM 55.4 °F 50.0 °F 82% 29.97 in 10.0 mi North 16.1 mph - N/A   Overcast
12:53 PM 55.4 °F 50.0 °F 82% 29.98 in 10.0 mi North 17.3 mph 23.0 mph N/A   Overcast
1:13 PM 55.4 °F 50.0 °F 82% 29.98 in 10.0 mi North 12.7 mph 20.7 mph N/A   Overcast
1:33 PM 55.4 °F 51.8 °F 88% 29.98 in 7.0 mi North 12.7 mph - N/A   Overcast
1:53 PM 57.2 °F 50.0 °F 77% 29.99 in - North 12.7 mph - N/A   Unknown
2:13 PM 57.2 °F 50.0 °F 77% 29.99 in 10.0 mi North 17.3 mph 23.0 mph N/A   Overcast
2:33 PM 57.2 °F 50.0 °F 77% 29.99 in 10.0 mi North 18.4 mph - N/A   Overcast
2:53 PM 57.2 °F 48.2 °F 72% 29.99 in 10.0 mi North 16.1 mph 21.9 mph N/A   Overcast
3:13 PM 59.0 °F 50.0 °F 72% 30.00 in 10.0 mi NNW 16.1 mph - N/A   Overcast
3:33 PM 59.0 °F 50.0 °F 72% 30.00 in 10.0 mi North 15.0 mph - N/A   Overcast
3:53 PM 59.0 °F 50.0 °F 72% 30.01 in 10.0 mi North 16.1 mph - N/A   Overcast
4:13 PM 59.0 °F 50.0 °F 72% 30.01 in 10.0 mi North 12.7 mph - N/A   Overcast
4:33 PM 59.0 °F 48.2 °F 67% 30.01 in 10.0 mi North 16.1 mph 21.9 mph N/A   Overcast
4:53 PM 59.0 °F 48.2 °F 67% 30.01 in 10.0 mi North 17.3 mph - N/A   Overcast
5:13 PM 59.0 °F 50.0 °F 72% 30.01 in 10.0 mi North 12.7 mph - N/A   Overcast
5:33 PM 59.0 °F 50.0 °F 72% 30.02 in 10.0 mi North 15.0 mph 24.2 mph N/A   Overcast
5:53 PM 59.0 °F 48.2 °F 67% 30.02 in 10.0 mi North 13.8 mph - N/A   Overcast
6:14 PM 59.0 °F 48.2 °F 67% 30.02 in 10.0 mi North 12.7 mph - N/A   Overcast
6:33 PM 59.0 °F 48.2 °F 67% 30.02 in 10.0 mi North 11.5 mph - N/A   Overcast
6:53 PM 59.0 °F 48.2 °F 67% 30.02 in 10.0 mi North 11.5 mph - N/A   Overcast
7:14 PM 60.8 °F 48.2 °F 63% 30.02 in 10.0 mi North 13.8 mph - N/A   Overcast
7:33 PM 60.8 °F 48.2 °F 63% 30.02 in 10.0 mi North 10.4 mph - N/A   Overcast
7:53 PM 60.8 °F 48.2 °F 63% 30.02 in 10.0 mi North 9.2 mph - N/A   Overcast
8:13 PM 60.8 °F 48.2 °F 63% 30.02 in 10.0 mi North 11.5 mph - N/A   Overcast
8:33 PM 60.8 °F 50.0 °F 68% 30.03 in 10.0 mi NE 9.2 mph - N/A   Overcast
8:53 PM 59.0 °F 50.0 °F 72% 30.03 in 10.0 mi NE 9.2 mph - N/A   Overcast
9:13 PM 59.0 °F 50.0 °F 72% 30.04 in 10.0 mi NE 8.1 mph - N/A   Overcast
9:33 PM 59.0 °F 50.0 °F 72% 30.04 in 10.0 mi NE 9.2 mph - N/A   Overcast
9:53 PM 59.0 °F 48.2 °F 67% 30.04 in 10.0 mi NE 11.5 mph - N/A   Overcast
10:13 PM 59.0 °F 48.2 °F 67% 30.05 in 10.0 mi ENE 9.2 mph - N/A   Overcast
10:33 PM 57.2 °F 50.0 °F 77% 30.05 in 10.0 mi ENE 6.9 mph - N/A   Overcast
10:53 PM 55.4 °F 48.2 °F 77% 30.05 in 10.0 mi ENE 5.8 mph - N/A   Mostly Cloudy
11:13 PM 55.4 °F 48.2 °F 77% 30.05 in 10.0 mi ENE 5.8 mph - N/A   Scattered Clouds
11:33 PM 55.4 °F 48.2 °F 77% 30.06 in 10.0 mi East 5.8 mph - N/A   Clear
11:53 PM 53.6 °F 48.2 °F 82% 30.05 in 10.0 mi East 5.8 mph - N/A   Clear